FW3877 Weather Reports


Display with metric or nautical units.
time (UTC)temp
F
wind
direction
speed
MPH
gust
MPH
rain 1hr
in
rain 24hr
in
rain mn
in
humidity
%
barometer
mb
20260905104204 58 202 6.0 12.0 0.00 0.13 0.02 86 1021.3
20260905103704 58 196 5.0 9.0 0.00 0.13 0.02 87 1021.2
20260905102704 58 207 5.0 10.0 0.00 0.13 0.02 87 1021.2
20260905102204 58 219 5.0 9.0 0.00 0.13 0.02 87 1021.2
20260905101704 58 245 5.0 9.0 0.00 0.13 0.02 87 1021.1
20260905101204 58 213 3.0 8.0 0.00 0.13 0.02 88 1021.0
20260905100703 57 248 5.0 7.0 0.00 0.13 0.02 88 1021.1
20260905100204 57 218 3.0 6.0 0.00 0.13 0.02 89 1020.8
20260905095704 57 203 5.0 8.0 0.00 0.13 0.02 90 1020.9
20260905095203 57 220 6.0 8.0 0.00 0.13 0.02 91 1020.9
20260905094704 57 203 6.0 8.0 0.00 0.13 0.02 91 1020.9
20260905094203 56 227 5.0 8.0 0.00 0.13 0.02 92 1021.0
20260905093703 56 215 4.0 7.0 0.00 0.13 0.02 93 1020.9
20260905093204 56 233 3.0 6.0 0.00 0.13 0.02 93 1020.9
20260905092704 56 220 4.0 6.0 0.00 0.13 0.02 93 1021.0
20260905092204 56 235 4.0 7.0 0.00 0.13 0.02 94 1021.0
20260905091204 55 215 3.0 5.0 0.00 0.13 0.02 94 1021.0
20260905090204 55 228 4.0 8.0 0.00 0.13 0.02 94 1020.7
20260905085704 55 208 4.0 6.0 0.00 0.13 0.02 94 1020.6
20260905085204 55 201 3.0 5.0 0.00 0.13 0.02 95 1020.7
20260905084204 54 226 4.0 7.0 0.00 0.13 0.02 95 1020.8
20260905083703 54 190 4.0 7.0 0.00 0.13 0.02 95 1020.7
20260905083204 54 209 4.0 7.0 0.00 0.13 0.02 95 1020.8
20260905082704 54 200 5.0 8.0 0.00 0.13 0.02 95 1020.6
20260905082204 54 231 6.0 10.0 0.00 0.13 0.02 95 1020.7
20260905081704 54 208 4.0 9.0 0.00 0.13 0.02 95 1020.6
20260905081204 54 205 5.0 8.0 0.00 0.13 0.02 95 1020.7
20260905080704 54 206 3.0 6.0 0.00 0.13 0.02 95 1020.5
20260905080204 54 209 3.0 5.0 0.00 0.13 0.02 95 1020.6
20260905075205 53 242 4.0 7.0 0.00 0.13 0.02 95 1020.4
20260905074704 53 228 2.0 7.0 0.00 0.13 0.02 95 1020.5
20260905074203 53 219 3.0 7.0 0.00 0.13 0.02 95 1020.3
20260905073704 53 221 6.0 12.0 0.00 0.13 0.02 95 1020.3
20260905072704 53 219 4.0 6.0 0.00 0.13 0.02 95 1020.1
20260905072204 53 223 3.0 6.0 0.00 0.13 0.02 95 1020.1
20260905071704 53 200 3.0 7.0 0.00 0.13 0.02 95 1020.0
20260905071204 53 224 3.0 6.0 0.00 0.13 0.02 95 1019.9
20260905070704 53 239 3.0 7.0 0.00 0.13 0.02 95 1019.9
20260905065704 53 220 3.0 5.0 0.00 0.13 0.02 95 1019.8
20260905064204 52 212 3.0 5.0 0.00 0.13 0.02 95 1019.7
20260905063704 52 234 2.0 3.0 0.00 0.13 0.02 95 1019.7
20260905063204 52 249 2.0 6.0 0.00 0.13 0.02 95 1019.6
20260905062703 52 218 3.0 6.0 0.00 0.13 0.02 95 1019.6
20260905062204 52 200 3.0 5.0 0.00 0.13 0.02 95 1019.5
20260905061704 52 222 2.0 6.0 0.00 0.13 0.02 95 1019.6
20260905053204 51 201 3.0 5.0 0.00 0.13 0.02 95 1019.6
20260905052703 51 216 2.0 3.0 0.00 0.13 0.02 95 1019.6
20260905051704 52 186 2.0 3.0 0.00 0.13 0.02 95 1019.3
20260905051204 52 178 1.0 3.0 0.00 0.13 0.02 96 1019.3
20260905050704 52 216 2.0 3.0 0.00 0.13 0.02 96 1019.4
20260905050204 52 239 3.0 6.0 0.00 0.13 0.02 96 1019.4
20260905045704 52 256 3.0 6.0 0.00 0.13 0.02 96 1019.3
20260905045204 52 252 2.0 3.0 0.00 0.13 0.02 96 1019.3
20260905044704 52 219 2.0 5.0 0.00 0.13 0.02 95 1019.2
20260905044204 52 209 3.0 6.0 0.00 0.13 0.02 95 1019.3
20260905043704 52 209 2.0 5.0 0.00 0.13 0.02 95 1019.2
20260905043204 52 213 2.0 3.0 0.00 0.13 0.02 95 1019.2
20260905042704 52 216 2.0 3.0 0.00 0.13 0.02 95 1019.3
20260905042204 52 219 2.0 3.0 0.00 0.13 0.02 95 1019.4
20260905041204 53 261 3.0 7.0 0.01 0.13 0.02 95 1019.3
20260905040703 53 238 3.0 6.0 0.01 0.13 0.02 95 1019.3
20260905040204 53 252 3.0 8.0 0.01 0.13 0.02 95 1019.3
20260905035704 52 245 5.0 8.0 0.01 0.13 0.02 95 1019.4
20260905035205 52 231 2.0 3.0 0.01 0.13 0.02 95 1019.3
20260905034704 52 250 1.0 2.0 0.01 0.13 0.02 95 1019.1
20260905034204 53 249 2.0 5.0 0.01 0.13 0.02 95 1019.1
20260905033704 53 258 3.0 3.0 0.01 0.13 0.02 95 1019.1
20260905033205 53 247 3.0 7.0 0.01 0.13 0.02 95 1019.1
20260905032704 53 274 3.0 7.0 0.01 0.13 0.02 95 1019.2
20260905032204 53 257 3.0 9.0 0.01 0.13 0.02 95 1019.2
20260905031704 53 258 5.0 8.0 0.00 0.13 0.02 95 1019.3
20260905030704 53 266 3.0 6.0 0.00 0.13 0.02 95 1019.2
20260905030204 53 259 2.0 5.0 0.00 0.13 0.02 95 1019.0
20260905025204 53 246 3.0 5.0 0.00 0.13 0.02 95 1019.1
20260905024703 53 241 3.0 5.0 0.00 0.13 0.02 95 1019.0
20260905024204 53 241 3.0 5.0 0.00 0.13 0.02 95 1019.1
20260905023703 53 239 2.0 3.0 0.00 0.13 0.02 95 1018.9
20260905023204 53 216 2.0 3.0 0.01 0.13 0.02 95 1018.9
20260905022704 53 234 2.0 7.0 0.01 0.13 0.02 95 1018.9
20260905022204 53 272 3.0 8.0 0.01 0.13 0.02 95 1018.8
20260905021704 53 217 2.0 3.0 0.01 0.13 0.02 95 1018.7
20260905021204 53 227 3.0 3.0 0.01 0.13 0.02 95 1018.7
20260905020203 53 246 3.0 6.0 0.02 0.13 0.02 95 1018.7
20260905015704 53 251 3.0 7.0 0.02 0.13 0.02 95 1018.7
20260905015204 53 253 3.0 5.0 0.02 0.13 0.02 95 1018.6
20260905014704 53 252 2.0 6.0 0.02 0.13 0.02 94 1018.6
20260905014204 53 260 3.0 7.0 0.02 0.13 0.02 94 1018.6
20260905013704 53 251 3.0 6.0 0.02 0.13 0.02 94 1018.6
20260905013205 53 248 4.0 8.0 0.01 0.13 0.01 94 1018.5
20260905012705 53 239 3.0 7.0 0.01 0.13 0.01 94 1018.5
20260905012204 53 249 3.0 7.0 0.01 0.13 0.01 94 1018.5
20260905011704 53 256 3.0 7.0 0.01 0.13 0.01 94 1018.3
20260905011204 53 247 5.0 9.0 0.01 0.13 0.01 94 1018.4
20260905010703 53 247 7.0 10.0 0.01 0.13 0.01 94 1018.5
20260905005703 52 241 3.0 7.0 0.00 0.12 0.00 94 1018.3
20260905005203 52 225 2.0 3.0 0.00 0.12 0.00 94 1018.3
20260905004703 52 253 3.0 8.0 0.00 0.12 0.00 94 1018.2
20260905004203 52 250 3.0 5.0 0.00 0.12 0.00 94 1018.1
20260905003703 52 258 3.0 3.0 0.00 0.12 0.00 93 1018.1
20260905003204 52 248 3.0 3.0 0.00 0.12 0.00 93 1018.1
20260905002704 52 252 3.0 6.0 0.00 0.12 0.00 93 1018.1
20260905002204 52 250 2.0 3.0 0.00 0.12 0.00 93 1018.1
20260905001704 52 246 2.0 3.0 0.00 0.12 0.00 93 1018.0
20260905001203 52 246 1.0 3.0 0.00 0.12 0.00 93 1018.1
20260905000204 53 231 1.0 3.0 0.00 0.12 0.00 93 1018.0
20260904235705 53 242 1.0 3.0 0.00 0.12 0.00 93 1018.0
20260904235204 53 248 3.0 3.0 0.00 0.12 0.00 93 1018.1
20260904234704 53 252 3.0 6.0 0.00 0.12 0.00 93 1018.1
20260904234204 53 231 3.0 3.0 0.00 0.12 0.00 93 1018.1
20260904233704 53 214 4.0 5.0 0.00 0.12 0.00 93 1018.1
20260904233203 53 212 2.0 3.0 0.00 0.12 0.00 93 1018.0
20260904232704 53 239 2.0 6.0 0.00 0.12 0.00 93 1018.1
20260904232204 53 245 2.0 3.0 0.00 0.12 0.00 93 1018.0
20260904231703 53 259 3.0 7.0 0.00 0.12 0.00 93 1017.9
20260904231204 53 242 5.0 8.0 0.00 0.12 0.00 93 1017.8
20260904230703 54 252 5.0 12.0 0.00 0.12 0.00 93 1017.8
20260904230204 54 255 6.0 12.0 0.00 0.12 0.00 93 1017.7
20260904225704 54 268 8.0 13.0 0.00 0.12 0.12 93 1017.7
20260904224704 54 248 6.0 9.0 0.00 0.12 0.12 93 1017.6
20260904223704 54 248 3.0 6.0 0.00 0.12 0.12 93 1017.6
20260904223203 54 256 6.0 14.0 0.00 0.12 0.12 93 1017.5
20260904221704 54 258 9.0 12.0 0.00 0.12 0.12 93 1017.6
20260904221204 53 265 5.0 12.0 0.00 0.12 0.12 93 1017.6
20260904220704 53 251 6.0 10.0 0.00 0.12 0.12 93 1017.6
20260904220204 54 262 6.0 12.0 0.00 0.12 0.12 93 1017.5
20260904215704 54 261 9.0 13.0 0.00 0.12 0.12 93 1017.5
20260904214204 54 245 5.0 8.0 0.00 0.12 0.12 93 1017.3
20260904213704 54 238 5.0 7.0 0.00 0.12 0.12 93 1017.4
20260904212703 54 263 7.0 14.0 0.00 0.20 0.12 93 1017.1
20260904212204 54 252 6.0 12.0 0.00 0.30 0.12 93 1017.1
20260904211704 54 263 7.0 12.0 0.00 0.32 0.12 93 1017.1
20260904210705 54 250 5.0 8.0 0.00 0.35 0.12 93 1017.1
20260904205204 54 258 5.0 8.0 0.00 0.36 0.12 93 1017.0
20260904204204 53 251 3.0 7.0 0.00 0.36 0.12 92 1016.9
20260904203704 53 241 3.0 7.0 0.00 0.36 0.12 92 1016.8
20260904203204 54 245 5.0 7.0 0.00 0.36 0.12 92 1016.8
20260904202204 54 249 5.0 9.0 0.00 0.36 0.12 92 1016.7
20260904201704 54 266 5.0 9.0 0.00 0.36 0.12 92 1016.7
20260904201204 54 257 6.0 9.0 0.00 0.36 0.12 92 1016.6
20260904195704 55 249 5.0 9.0 0.00 0.36 0.12 92 1016.5
20260904195204 55 246 6.0 9.0 0.00 0.36 0.12 92 1016.4
20260904194704 55 252 6.0 12.0 0.00 0.36 0.12 92 1016.2
20260904193704 55 260 7.0 12.0 0.00 0.36 0.12 92 1016.0
20260904192704 55 243 5.0 8.0 0.00 0.36 0.12 92 1016.0
20260904192203 55 252 4.0 7.0 0.00 0.36 0.12 91 1015.9
20260904191204 55 255 6.0 9.0 0.00 0.36 0.12 92 1015.8
20260904190704 55 251 6.0 12.0 0.00 0.36 0.12 92 1015.6
20260904190204 55 251 6.0 12.0 0.00 0.36 0.12 92 1015.7
20260904185703 55 248 7.0 12.0 0.00 0.36 0.12 91 1015.5
20260904185204 55 253 5.0 9.0 0.00 0.36 0.12 91 1015.5
20260904184704 56 255 5.0 12.0 0.00 0.36 0.12 91 1015.4
20260904184204 56 265 7.0 14.0 0.00 0.36 0.12 91 1015.4
20260904183204 56 239 6.0 12.0 0.00 0.37 0.12 91 1015.2
20260904182704 56 258 8.0 12.0 0.00 0.37 0.12 91 1015.3
20260904182204 56 241 8.0 14.0 0.00 0.37 0.12 91 1015.3
20260904181704 56 254 9.0 14.0 0.00 0.37 0.12 91 1015.3
20260904181204 56 261 7.0 15.0 0.00 0.37 0.12 90 1015.3
20260904180204 56 258 7.0 12.0 0.00 0.37 0.12 90 1015.2
20260904175704 56 268 8.0 12.0 0.00 0.37 0.12 90 1015.2
20260904175204 56 271 6.0 16.0 0.00 0.38 0.12 89 1015.2
20260904174704 57 262 10.0 16.0 0.00 0.38 0.12 89 1015.0
20260904174203 56 268 6.0 12.0 0.00 0.38 0.12 88 1015.1
20260904173704 57 276 9.0 20.0 0.00 0.38 0.12 87 1015.0
20260904173205 58 270 11.0 21.0 0.00 0.39 0.12 85 1014.9
20260904172704 58 266 9.0 15.0 0.00 0.39 0.12 85 1014.8
20260904172204 59 258 6.0 17.0 0.00 0.39 0.12 84 1014.6
20260904171704 59 284 7.0 18.0 0.00 0.39 0.12 84 1014.6
20260904171204 59 266 7.0 17.0 0.00 0.39 0.12 84 1014.5
20260904170204 59 262 9.0 16.0 0.00 0.41 0.12 84 1014.4
20260904165704 59 259 10.0 15.0 0.00 0.41 0.12 84 1014.3
20260904165203 59 277 10.0 17.0 0.00 0.42 0.12 84 1014.2
20260904164705 59 279 7.0 15.0 0.00 0.42 0.12 85 1014.1
20260904164203 60 255 9.0 15.0 0.00 0.43 0.12 84 1014.0
20260904163704 60 265 8.0 16.0 0.00 0.43 0.12 84 1014.0
20260904163204 60 254 10.0 20.0 0.00 0.43 0.12 85 1014.0
20260904162704 59 263 7.0 12.0 0.00 0.44 0.12 85 1013.8
20260904162204 59 271 8.0 17.0 0.00 0.45 0.12 84 1013.8
20260904161705 59 264 11.0 20.0 0.00 0.46 0.12 84 1013.7
20260904161204 59 268 13.0 22.0 0.00 0.46 0.12 85 1013.7
20260904160203 60 267 10.0 18.0 0.00 0.48 0.12 84 1013.5
20260904155704 60 265 8.0 17.0 0.00 0.48 0.12 85 1013.6
20260904155204 60 264 10.0 18.0 0.00 0.50 0.12 85 1013.4
20260904154703 59 272 13.0 24.0 0.00 0.50 0.12 86 1013.4
20260904154204 59 264 7.0 13.0 0.00 0.51 0.12 87 1013.4
20260904153704 59 256 8.0 16.0 0.00 0.51 0.12 87 1013.4
20260904152704 59 267 8.0 16.0 0.00 0.51 0.12 87 1013.4
20260904152204 59 262 7.0 17.0 0.00 0.51 0.12 86 1013.4
20260904150704 59 263 14.0 24.0 0.02 0.51 0.12 86 1013.2
20260904150203 60 261 10.0 18.0 0.02 0.51 0.12 87 1013.3
20260904145204 59 276 10.0 20.0 0.02 0.51 0.12 88 1013.3
20260904144704 60 250 9.0 16.0 0.02 0.51 0.12 88 1013.2
20260904144204 59 250 10.0 16.0 0.02 0.51 0.12 89 1013.1
20260904143704 59 266 12.0 20.0 0.02 0.51 0.12 89 1013.1
20260904143204 59 251 11.0 20.0 0.02 0.52 0.12 91 1012.9
20260904142704 58 257 6.0 15.0 0.02 0.52 0.12 90 1013.0
20260904142204 58 253 10.0 18.0 0.02 0.52 0.12 90 1012.9
20260904141704 58 260 10.0 16.0 0.02 0.52 0.12 89 1012.9
20260904141203 58 270 12.0 26.0 0.02 0.53 0.12 88 1012.9
20260904140704 60 259 9.0 15.0 0.00 0.51 0.10 87 1012.7
20260904135704 59 250 13.0 22.0 0.00 0.51 0.10 87 1012.6
20260904134704 58 257 10.0 20.0 0.00 0.51 0.10 88 1012.7
20260904133703 58 271 10.0 20.0 0.00 0.51 0.10 86 1012.6
20260904131703 61 280 12.0 21.0 0.00 0.52 0.10 85 1012.2
20260904131204 60 264 11.0 20.0 0.01 0.52 0.10 85 1012.0
20260904130704 61 272 11.0 20.0 0.02 0.52 0.10 86 1012.1
20260904130204 61 254 10.0 26.0 0.02 0.52 0.10 85 1012.0
20260904125704 61 283 11.0 23.0 0.02 0.52 0.10 85 1012.0
20260904125204 61 269 15.0 23.0 0.02 0.52 0.10 87 1011.8
20260904124703 61 256 14.0 17.0 0.02 0.52 0.10 88 1011.7
20260904122703 59 264 6.0 15.0 0.06 0.53 0.10 91 1011.8
20260904121204 57 260 8.0 20.0 0.07 0.53 0.10 89 1011.7
20260904120704 59 263 8.0 12.0 0.06 0.50 0.08 90 1011.6
20260904120204 58 277 7.0 14.0 0.06 0.50 0.08 91 1011.4
20260904115703 58 267 6.0 13.0 0.06 0.50 0.08 91 1011.4
20260904115204 57 280 6.0 13.0 0.06 0.50 0.08 90 1011.5
20260904114704 57 288 9.0 17.0 0.06 0.50 0.08 90 1011.4
20260904114204 56 279 9.0 20.0 0.07 0.50 0.08 89 1011.5
20260904113704 58 280 10.0 18.0 0.06 0.49 0.06 90 1011.5
20260904113204 58 280 6.0 13.0 0.04 0.47 0.05 89 1011.3
20260904112704 58 273 6.0 12.0 0.04 0.47 0.05 89 1011.2
20260904112204 58 264 6.0 13.0 0.02 0.46 0.03 88 1011.1
20260904111704 58 278 7.0 14.0 0.02 0.46 0.03 86 1011.0
20260904111204 59 296 9.0 18.0 0.02 0.46 0.03 84 1011.1
20260904110704 60 268 9.0 17.0 0.01 0.44 0.02 84 1010.8
20260904110203 61 265 9.0 16.0 0.01 0.44 0.02 85 1010.6
20260904105704 60 269 9.0 17.0 0.01 0.44 0.02 86 1010.7
20260904105204 60 272 9.0 15.0 0.01 0.44 0.02 86 1010.6
20260904104704 60 259 5.0 16.0 0.01 0.44 0.02 83 1010.6